QZS-4 (MICHIBIKI-4)

Last updated on Sat Sep 13 2025 00:02:49 GMT+0000 (Coordinated Universal Time)

1 42965U 17062A 25254.51824744 -.00000316 00000+0 00000+0 0 9994 2 42965 40.2799 347.0548 0750837 269.3849 60.3493 1.00278342 29004
UTC large
Height (km)
Speed (km/s)
/
Latitude / Longitude
Inclination (degrees)
Orbital Period (minutes)
Azimuth
Elevation
Range (km)
Doppler Factor

Next 0 passes for location: London (51.5072 / 0.1276)

Sorry there are no passes over London.